Regional Weather Roundup
Issued by NWS

Home | Current Version | Previous Version | Text Only | Print | Product List | Glossary Off
Versions: 1 2 3 4 5 6 7 8 9 10 11 12 13 14 15 16 17 18 19 20 21 22 23 24 25 26 27 28 29 30 31 32 33 34 35 36 37 38 39 40 41 42 43 44 45 46 47 48 49 50

000
ASUS45 KCYS 170110
RWRWY

WYOMING REGIONAL WEATHER ROUNDUP
NATIONAL WEATHER SERVICE CHEYENNE WY
700 PM MDT TUE SEP 16 2014

NOTE:  "FAIR" INDICATES FEW OR NO CLOUDS BELOW 12,000 FEET
WITH NO SIGNIFICANT WEATHER AND/OR OBSTRUCTIONS TO VISIBILITY.

WYZ001-170200-
YELLOWSTONE NATIONAL PARK

CITY           SKY/WX    TMP DP  RH WIND       PRES   REMARKS
LK YELLOWSTONE   N/A     58  43  57 CALM      30.26F
W YELLOWSTONE  NOT AVBL

$$
WYZ002>013-054>058-071-098>099-170200-
NORTHERN WYOMING

CITY           SKY/WX    TMP DP  RH WIND       PRES   REMARKS
JACKSON        PTCLDY    70  41  35 CALM      30.15S
CODY           PTCLDY    72  45  37 CALM      30.07R
GREYBULL       MOCLDY    78  43  28 W3        29.97S
WORLAND        PTCLDY    75  50  41 NE5       29.97S
SHERIDAN       PTCLDY    64  47  53 CALM      29.99S
BUFFALO        PTCLDY    67  42  40 W9        30.07R
GILLETTE       PTCLDY    69  44  40 CALM      30.01R
HULETT         FAIR      73  36  25 MISG      30.02
NEWCASTLE      FAIR      77  32  19 N7        29.99

$$
WYZ014>020-022>026-101>103-170200-
CENTRAL WYOMING

CITY           SKY/WX    TMP DP  RH WIND       PRES   REMARKS
BIG PINEY      PTCLDY    68  34  28 NW12      30.20S
PINEDALE       PTCLDY    72  32  23 CALM      30.21S
DUBOIS         MOCLDY    55  46  71 SW15      30.25R
LANDER         PTCLDY    77  37  23 S5        30.07R
RIVERTON       PTCLDY    79  34  19 NW9       30.06S
CASPER         MOCLDY    75  33  21 N8        30.05F
DOUGLAS        CLEAR     77  35  21 N8        30.04R

$$
WYZ021-027>030-104>119-170200-
SOUTHERN WYOMING

CITY           SKY/WX    TMP DP  RH WIND       PRES   REMARKS
EVANSTON       CLEAR     75  36  24 NW9       30.21F
KEMMERER       PTCLDY   N/A N/A N/A N5        30.23S
ROCK SPRINGS   MOCLDY    73  36  25 W9        30.20R
DIXON          CLOUDY    75  45  34 N3        30.21S
RAWLINS        PTCLDY    76  29  17 W12       30.18S
SARATOGA       FAIR      68  36  30 W6        30.21F
LARAMIE        CLEAR     66  33  29 W8        30.22S
CHEYENNE       CLEAR     76  30  18 NW6       30.14S
TORRINGTON     PTCLDY    75  46  35 S7        29.97F
PINE BLUFFS    FAIR      72  36  26 SE6       30.08S

$$


USA.gov is the U.S. government's official web portal to all federal, state and local government web resources and services.